Regional Weather Roundup
Issued by NWS

Home | Current Version | Previous Version | Graphics & Text | Print | Product List | Glossary Off
Versions: 1 2 3 4 5 6 7 8 9 10 11 12 13 14 15 16 17 18 19 20 21 22 23 24 25 26 27 28 29 30 31 32 33 34 35 36 37 38 39 40 41 42 43 44 45 46 47 48 49 50

000
ASUS43 KLSX 271407
RWRMO

WEATHER SUMMARY FOR MISSOURI
NATIONAL WEATHER SERVICE SPRINGFIELD MO
800 AM CST TUE JAN 27 2015

NOTE: "FAIR" INDICATES FEW OR NO CLOUDS BELOW 12,000 FEET WITH NO
       SIGNIFICANT WEATHER AND/OR OBSTRUCTIONS TO VISIBILITY.
       CURRENT SKY AND/OR WEATHER CONDITIONS ARE NOT AVAILABLE FOR
       CHILLICOTHE AND FARMINGTON.

MOZ001>031-035>038-043-044-053-054-271500-
...NORTHERN AND WESTERN MISSOURI...

CITY           SKY/WX    TMP DP  RH WIND       PRES   REMARKS
KANSAS CTY INT FAIR      34  32  92 NW5       30.15R WCI  30
KANSAS C DTWN  CLEAR     32  29  88 CALM      30.16R
LEE`S SUMMIT   CLEAR     35  31  85 N3        30.14R
ST JOSEPH      FOG       23  22  96 NE3       30.16R VSB<1/4
CHILLICOTHE      N/A     29  26  89 CALM      30.15R
KIRKSVILLE     CLEAR     31  28  89 N5        30.12R WCI  26

$$
MOZ066>068-077>081-088>096-101>105-271500-
...SOUTHWEST MISSOURI...

CITY           SKY/WX    TMP DP  RH WIND       PRES   REMARKS
SPRINGFIELD    CLEAR     31  27  85 CALM      30.11R
JOPLIN         CLEAR     33  29  85 CALM      30.15R

$$
MOZ032>034-039>042-045>050-055>058-069>072-271500-
...CENTRAL MISSOURI...

CITY           SKY/WX    TMP DP  RH WIND       PRES   REMARKS
COLUMBIA       CLEAR     32  31  96 W8        30.13R WCI  25
JEFFERSON CITY CLEAR     29  28  96 NW5       30.14R WCI  24
ROLLA          CLEAR     34  30  85 NW6       30.09R WCI  29
SEDALIA        CLEAR     34  31  88 CALM      30.15R
WHITEMAN AFB   CLEAR     33  30  90 N5        30.14R WCI  28
WARRENSBURG    CLEAR     32  30  93 CALM      30.15R
OSAGE BEACH    CLEAR     34  30  86 NW3       30.13R

$$
MOZ051-052-059>065-271500-
...EAST CENTRAL MISSOURI...

CITY           SKY/WX    TMP DP  RH WIND       PRES   REMARKS
ST LOUIS INTL  MOCLDY    35  32  88 W5        30.10R
SPIRIT OF STL  CLEAR     33  30  88 W5        30.10R WCI  29
ST CHARLES     CLEAR     34  32  92 NW8       30.10R WCI  27

$$
MOZ072>076-082>087-097>100-106>115-271500-
...SOUTH CENTRAL AND SOUTHEAST MISSOURI...

CITY           SKY/WX    TMP DP  RH WIND       PRES   REMARKS
CAPE GIRARDEAU CLEAR     33  31  92 NW7       30.08R WCI  27
FARMINGTON     MOCLDY    37  34  87 MISG      30.11R
POPLAR BLUFF   PTCLDY    35  30  82 CALM      30.09R
WEST PLAINS    CLEAR     40  32  73 N5        30.11R

$$



USA.gov is the U.S. government's official web portal to all federal, state and local government web resources and services.